This demonstration page uses our WeatherBlox Daily Observations layout. Learn more.

Left ArrowRight Arrow

Hourly Observations for March 6, 2020

Temp ( °F °C ) Dew Point ( °F °C ) Humidity (%) Winds ( mph kmh ) Pressure ( in mb ) Visibility ( mi km ) Precip ( " mm )
12:56 am 00:56 Clear 23 -5 16 -8.9 74 74 SW 7 11 30.53 1034 10 16 0.00 0.00
1:56 am 01:56 Clear 29 -1.7 20 -6.7 69 69 WSW 6 9 30.52 1034 10 16 0.00 0.00
2:56 am 02:56 Clear 23 -5 16 -8.9 74 74 NE 3 6 30.50 1033 10 16 0.00 0.00
3:56 am 03:56 Clear 24 -4.4 17 -8.3 75 75 SW 5 7 30.52 1034 10 16 0.00 0.00
4:56 am 04:56 Clear 21 -6.1 15 -9.4 78 78 Calm 30.52 1034 10 16 0.00 0.00
5:56 am 05:56 Clear 21 -6.1 17 -8.3 85 85 S 3 6 30.53 1034 10 16 0.00 0.00
6:56 am 06:56 Clear 22 -5.6 18 -7.8 85 85 S 6 9 30.54 1034 10 16 0.00 0.00
7:56 am 07:56 Sunny 27 -2.8 23 -5 85 85 S 8 13 30.53 1034 10 16 0.00 0.00
8:56 am 08:56 Sunny 34 1.1 26 -3.3 73 73 SSE 13 20 30.52 1033 10 16 0.00 0.00
9:56 am 09:56 Sunny 40 4.4 25 -3.9 55 55 SSE 15 24 30.51 1033 10 16 0.00 0.00
10:56 am 10:56 Sunny 44 6.7 24 -4.4 45 45 SSE 18 30 30.50 1033 10 16 0.00 0.00
11:56 am 11:56 Sunny 48 8.9 23 -5 37 37 SSE 21 33 30.45 1031 10 16 0.00 0.00
12:56 pm 12:56 Sunny 52 11.1 20 -6.7 28 28 S 22 35 30.41 1030 10 16 0.00 0.00
1:56 pm 13:56 Sunny 55 12.8 22 -5.6 28 28 S 21 33 30.35 1028 10 16 0.00 0.00
2:56 pm 14:56 Sunny 57 13.9 23 -5 27 27 S 25 41 30.32 1027 10 16 0.00 0.00
3:56 pm 15:56 Sunny 58 14.4 24 -4.4 27 27 S 21 33 30.29 1026 10 16 0.00 0.00
4:56 pm 16:56 Sunny 57 13.9 25 -3.9 29 29 S 22 35 30.27 1025 10 16 0.00 0.00
5:56 pm 17:56 Sunny 53 11.7 26 -3.3 35 35 SSE 15 24 30.27 1025 10 16 0.00 0.00
6:56 pm 18:56 Clear 47 8.3 26 -3.3 44 44 SE 13 20 30.26 1025 10 16 0.00 0.00
7:56 pm 19:56 Clear 45 7.2 26 -3.3 48 48 SSE 13 20 30.25 1025 10 16 0.00 0.00
8:56 pm 20:56 Clear 43 6.1 26 -3.3 51 51 SSE 14 22 30.23 1024 10 16 0.00 0.00
9:56 pm 21:56 Clear 46 7.8 26 -3.3 46 46 S 21 33 30.22 1023 10 16 0.00 0.00
10:56 pm 22:56 Clear 46 7.8 26 -3.3 46 46 S 21 33 30.20 1023 10 16 0.00 0.00
11:56 pm 23:56 Clear 43 6.1 26 -3.3 51 51 S 18 30 30.18 1022 10 16 0.00 0.00

Powered by AerisWeather